This is the latest recevied weather packets stored in our database for station/object KN6KS. If no packets are shown the sender has not sent any weather packets the latest 10 day(s).
| Time | Temp. | Humidity | Pressure | Rain* | Wind** | Luminosity | Snow |
|---|---|---|---|---|---|---|---|
| 1777812609 | 12.22° C | 76% | 1010.5 hPa | 0 mm | - | 0 W/m² | - |
| 1777812306 | 12.22° C | 76% | 1010.6 hPa | 0 mm | - | 0 W/m² | - |
| 1777812004 | 12.78° C | 76% | 1010.3 hPa | 0 mm | - | 0 W/m² | - |
| 1777811703 | 12.78° C | 76% | 1010.2 hPa | 0 mm | - | 0 W/m² | - |
| 1777811397 | 12.78° C | 76% | 1010.2 hPa | 0 mm | - | 0 W/m² | - |
| 1777811095 | 12.22° C | 75% | 1010.3 hPa | 0 mm | - | 0 W/m² | - |
| 1777810792 | 12.78° C | 75% | 1010.3 hPa | 0 mm | - | 0 W/m² | - |
| 1777810489 | 12.22° C | 74% | 1010.5 hPa | 0 mm | - | 0 W/m² | - |
| 1777810185 | 12.22° C | 74% | 1010.4 hPa | 0 mm | - | 0 W/m² | - |
| 1777809882 | 12.78° C | 74% | 1010.6 hPa | 0 mm | - | 0 W/m² | - |
| 1777809580 | 12.78° C | 74% | 1010.5 hPa | 0 mm | - | 0 W/m² | - |
| 1777809277 | 13.33° C | 73% | 1010.4 hPa | 0 mm | - | 0 W/m² | - |
| 1777808975 | 13.33° C | 73% | 1010.5 hPa | 0 mm | - | 0 W/m² | - |
| 1777808672 | 13.33° C | 72% | 1010.4 hPa | 0 mm | - | 0 W/m² | - |
| 1777808368 | 13.89° C | 72% | 1010.4 hPa | 0 mm | - | 0 W/m² | - |
| 1777808067 | 13.89° C | 71% | 1010.4 hPa | 0 mm | - | 0 W/m² | - |
| 1777807764 | 13.89° C | 70% | 1010.5 hPa | 0 mm | - | 0 W/m² | - |
| 1777807462 | 14.44° C | 70% | 1010.7 hPa | 0 mm | - | 0 W/m² | - |
| 1777807157 | 14.44° C | 69% | 1010.5 hPa | 0 mm | - | 0 W/m² | - |
| 1777806855 | 14.44° C | 69% | 1010.4 hPa | 0 mm | - | 0 W/m² | - |
| 1777806551 | 15° C | 67% | 1010.2 hPa | 0 mm | - | 0 W/m² | - |
| 1777806247 | 15° C | 66% | 1010.4 hPa | 0 mm | - | 0 W/m² | - |
| 1777805944 | 15.56° C | 62% | 1010.4 hPa | 0 mm | - | 0 W/m² | - |
| 1777805641 | 16.11° C | 60% | 1010.5 hPa | 0 mm | - | 0 W/m² | - |
| 1777805338 | 16.67° C | 56% | 1010.3 hPa | 0 mm | - | 0 W/m² | - |
* Rain latest hour (hover to see other rain measurements)
** Current wind speed in m/s (hover to see current wind gust speed)